KS4XQ Weather Reports


Display with metric or nautical units.
time (UTC)temp
F
wind
direction
speed
MPH
gust
MPH
rain 1hr
in
rain 24hr
in
rain mn
in
humidity
%
barometer
mb
20260901184408 95 5 0.0 0.0 0.00 0.00 0.00 51 1019.0
20260901184206 96 51 0.0 0.0 0.00 0.00 0.00 51 1019.1
20260901184006 96 51 0.0 0.0 0.00 0.00 0.00 54 1019.0
20260901183805 95 119 0.0 0.0 0.00 0.00 0.00 56 1019.1
20260901183606 95 192 0.0 0.0 0.00 0.00 0.00 50 1019.0
20260901183407 95 278 0.0 0.0 0.00 0.00 0.00 50 1019.1
20260901183205 95 124 0.0 0.0 0.00 0.00 0.00 49 1019.1
20260901183008 95 62 0.0 0.0 0.00 0.00 0.00 49 1019.2
20260901182805 96 317 0.0 0.0 0.00 0.00 0.00 53 1019.2
20260901182605 96 90 0.0 0.0 0.00 0.00 0.00 51 1019.2
20260901182407 96 20 0.0 0.0 0.00 0.00 0.00 52 1019.2
20260901182205 97 176 0.0 0.0 0.00 0.00 0.00 49 1019.3
20260901182007 97 207 0.0 0.0 0.00 0.00 0.00 51 1019.3
20260901181806 97 188 0.0 0.0 0.00 0.00 0.00 52 1019.3
20260901181608 97 126 0.0 0.0 0.00 0.00 0.00 51 1019.2
20260901181406 97 67 0.0 0.0 0.00 0.00 0.00 55 1019.1
20260901181205 97 30 0.0 0.0 0.00 0.00 0.00 49 1019.1
20260901180806 96 202 0.0 0.0 0.00 0.00 0.00 54 1019.1
20260901180607 96 204 0.0 0.0 0.00 0.00 0.00 52 1019.2
20260901180208 95 160 0.0 0.0 0.00 0.00 0.00 51 1019.2
20260901180008 96 179 0.0 0.0 0.00 0.00 0.00 52 1019.2
20260901175606 95 44 0.0 0.0 0.00 0.00 0.00 53 1019.2
20260901175207 95 109 0.0 0.0 0.00 0.00 0.00 53 1019.2
20260901175006 95 100 0.0 0.0 0.00 0.00 0.00 56 1019.4
20260901174808 94 109 0.0 0.0 0.00 0.00 0.00 56 1019.4
20260901174606 94 198 0.0 0.0 0.00 0.00 0.00 53 1019.5
20260901174405 94 213 0.0 0.0 0.00 0.00 0.00 55 1019.5
20260901174207 94 223 0.0 0.0 0.00 0.00 0.00 59 1019.5
20260901173809 93 209 0.0 0.0 0.00 0.00 0.00 58 1019.5
20260901173406 93 299 0.0 0.0 0.00 0.00 0.00 55 1019.6
20260901173206 93 225 0.0 0.0 0.00 0.00 0.00 55 1019.5
20260901173005 93 225 0.0 0.0 0.00 0.00 0.00 59 1019.6
20260901172809 93 215 0.0 0.0 0.00 0.00 0.00 54 1019.6
20260901172606 93 322 0.0 0.0 0.00 0.00 0.00 57 1019.6
20260901172406 92 28 0.0 0.0 0.00 0.00 0.00 59 1019.7
20260901172206 93 28 0.0 0.0 0.00 0.00 0.00 59 1019.8
20260901172006 93 28 0.0 0.0 0.00 0.00 0.00 58 1019.6
20260901171809 93 290 0.0 0.0 0.00 0.00 0.00 56 1019.7
20260901171406 93 249 0.0 0.0 0.00 0.00 0.00 55 1019.7
20260901171206 94 275 0.0 0.0 0.00 0.00 0.00 57 1019.8
20260901171006 94 355 0.0 0.0 0.00 0.00 0.00 59 1019.8
20260901170809 94 254 0.0 0.0 0.00 0.00 0.00 56 1019.8
20260901170606 94 111 0.0 0.0 0.00 0.00 0.00 55 1019.9
20260901170406 94 115 0.0 0.0 0.00 0.00 0.00 58 1019.9
20260901170008 94 17 0.0 0.0 0.00 0.00 0.00 57 1019.9
20260901165808 94 83 0.0 0.0 0.00 0.00 0.00 58 1019.9
20260901165606 94 94 0.0 0.0 0.00 0.00 0.00 61 1020.0
20260901165406 94 43 0.0 0.0 0.00 0.00 0.00 59 1020.0
20260901165207 93 113 0.0 0.0 0.00 0.00 0.00 61 1020.1
20260901165006 93 113 0.0 0.0 0.00 0.00 0.00 59 1020.2
20260901164808 93 321 0.0 0.0 0.00 0.00 0.00 61 1020.3
20260901164606 93 208 0.0 0.0 0.00 0.00 0.00 61 1020.3
20260901164406 93 208 0.0 0.0 0.00 0.00 0.00 62 1020.3
20260901164208 92 184 0.0 0.0 0.00 0.00 0.00 62 1020.3
20260901164006 92 215 0.0 0.0 0.00 0.00 0.00 61 1020.4
20260901163808 92 217 0.0 0.0 0.00 0.00 0.00 63 1020.4
20260901163605 92 259 0.0 0.0 0.00 0.00 0.00 60 1020.3
20260901163407 92 294 0.0 0.0 0.00 0.00 0.00 60 1020.2
20260901163206 92 275 0.0 0.0 0.00 0.00 0.00 62 1020.3
20260901163006 92 165 0.0 0.0 0.00 0.00 0.00 62 1020.3
20260901162808 91 245 0.0 0.0 0.00 0.00 0.00 63 1020.3
20260901162406 91 289 0.0 0.0 0.00 0.00 0.00 59 1020.4
20260901162205 91 278 0.0 0.0 0.00 0.00 0.00 62 1020.5
20260901162006 91 261 0.0 0.0 0.00 0.00 0.00 62 1020.5
20260901161807 91 324 0.0 0.0 0.00 0.00 0.00 61 1020.4
20260901161606 90 171 0.0 0.0 0.00 0.00 0.00 63 1020.4
20260901161206 90 232 0.0 0.0 0.00 0.00 0.00 66 1020.4
20260901161006 90 217 0.0 0.0 0.00 0.00 0.00 65 1020.5
20260901160808 90 273 0.0 0.0 0.00 0.00 0.00 64 1020.5
20260901160606 90 273 0.0 0.0 0.00 0.00 0.00 62 1020.5
20260901160406 90 331 0.0 0.0 0.00 0.00 0.00 62 1020.6
20260901160206 90 304 0.0 0.0 0.00 0.00 0.00 64 1020.6
20260901160008 90 267 0.0 0.0 0.00 0.00 0.00 63 1020.7
20260901155406 89 199 0.0 0.0 0.00 0.00 0.00 65 1020.7
20260901155206 89 275 0.0 0.0 0.00 0.00 0.00 67 1020.8
20260901155006 89 344 0.0 0.0 0.00 0.00 0.00 64 1020.7
20260901154807 89 277 0.0 0.0 0.00 0.00 0.00 66 1020.6
20260901154406 88 306 0.0 0.0 0.00 0.00 0.00 66 1020.8
20260901154206 88 230 0.0 0.0 0.00 0.00 0.00 70 1020.7
20260901154006 88 230 0.0 0.0 0.00 0.00 0.00 69 1020.9
20260901153808 88 213 0.0 0.0 0.00 0.00 0.00 67 1020.8
20260901153606 87 213 0.0 0.0 0.00 0.00 0.00 68 1020.8
20260901153406 87 271 0.0 0.0 0.00 0.00 0.00 69 1020.8
20260901153206 87 235 0.0 0.0 0.00 0.00 0.00 71 1020.8
20260901153006 87 265 0.0 0.0 0.00 0.00 0.00 67 1020.7
20260901152808 86 284 0.0 0.0 0.00 0.00 0.00 69 1020.8
20260901152606 86 292 0.0 0.0 0.00 0.00 0.00 71 1020.8
20260901152406 86 292 0.0 0.0 0.00 0.00 0.00 73 1020.9
20260901152206 86 299 0.0 0.0 0.00 0.00 0.00 72 1020.9
20260901152006 86 343 0.0 0.0 0.00 0.00 0.00 69 1020.9
20260901151807 85 343 0.0 0.0 0.00 0.00 0.00 69 1020.9
20260901151605 85 342 0.0 0.0 0.00 0.00 0.00 70 1020.9
20260901151406 85 342 0.0 0.0 0.00 0.00 0.00 73 1020.9
20260901151206 85 342 0.0 0.0 0.00 0.00 0.00 72 1020.9
20260901151006 84 329 0.0 0.0 0.00 0.00 0.00 72 1021.0
20260901150807 84 329 0.0 0.0 0.00 0.00 0.00 75 1020.9
20260901150606 84 329 0.0 0.0 0.00 0.00 0.00 74 1021.0
20260901150406 83 329 0.0 0.0 0.00 0.00 0.00 75 1021.0
20260901150206 83 329 0.0 0.0 0.00 0.00 0.00 76 1021.0
20260901150008 83 329 0.0 0.0 0.00 0.00 0.00 76 1021.0
20260901145808 82 329 0.0 0.0 0.00 0.00 0.00 79 1020.9
20260901145606 81 329 0.0 0.0 0.00 0.00 0.00 81 1021.0
20260901145406 81 217 0.0 0.0 0.00 0.00 0.00 82 1020.9
20260901145206 81 219 0.0 0.0 0.00 0.00 0.00 85 1021.0
20260901145006 80 149 0.0 0.0 0.00 0.00 0.00 86 1020.9
20260901144809 80 149 0.0 0.0 0.00 0.00 0.00 83 1020.9
20260901144606 79 173 0.0 0.0 0.00 0.00 0.00 87 1020.9
20260901144406 79 294 0.0 0.0 0.00 0.00 0.00 87 1020.9
20260901144206 78 284 0.0 0.0 0.00 0.00 0.00 89 1020.8
20260901144005 78 351 0.0 0.0 0.00 0.00 0.00 87 1020.9
20260901143808 78 351 0.0 0.0 0.00 0.00 0.00 87 1020.9
20260901143606 77 351 0.0 0.0 0.00 0.00 0.00 91 1021.0
20260901143406 77 351 0.0 0.0 0.00 0.00 0.00 89 1021.0
20260901143206 76 252 0.0 0.0 0.00 0.00 0.00 93 1021.0
20260901143007 76 275 0.0 0.0 0.00 0.00 0.00 95 1021.0
20260901142808 76 275 0.0 0.0 0.00 0.00 0.00 95 1020.9
20260901142606 76 275 0.0 0.0 0.00 0.00 0.00 94 1021.0
20260901142406 76 275 0.0 0.0 0.00 0.00 0.00 94 1020.9
20260901142206 75 275 0.0 0.0 0.00 0.00 0.00 95 1020.9
20260901142006 75 275 0.0 0.0 0.00 0.00 0.00 95 1020.9
20260901141808 75 275 0.0 0.0 0.00 0.00 0.00 95 1020.9
20260901141606 75 275 0.0 0.0 0.00 0.00 0.00 96 1020.9
20260901141206 74 275 0.0 0.0 0.00 0.00 0.00 95 1020.9
20260901141006 74 275 0.0 0.0 0.00 0.00 0.00 95 1020.9
20260901140808 74 275 0.0 0.0 0.00 0.00 0.00 95 1020.9
20260901140605 74 275 0.0 0.0 0.00 0.00 0.00 94 1020.9
20260901140406 74 275 0.0 0.0 0.00 0.00 0.00 94 1020.8
20260901140205 74 275 0.0 0.0 0.00 0.00 0.00 94 1020.8
20260901135812 73 272 0.0 0.0 0.00 0.00 0.00 96 1020.8
20260901135606 73 275 0.0 0.0 0.00 0.00 0.00 97 1020.9
20260901135206 73 5 0.0 0.0 0.00 0.00 0.00 97 1020.9
20260901135005 73 5 0.0 0.0 0.00 0.00 0.00 97 1020.9
20260901134808 73 5 0.0 0.0 0.00 0.00 0.00 97 1020.9
20260901134606 73 5 0.0 0.0 0.00 0.00 0.00 97 1020.9
20260901134406 73 5 0.0 0.0 0.00 0.00 0.00 97 1020.9
20260901134005 72 5 0.0 0.0 0.00 0.00 0.00 97 1020.8
20260901133808 72 5 0.0 0.0 0.00 0.00 0.00 97 1020.9
20260901133605 72 5 0.0 0.0 0.00 0.00 0.00 97 1020.9
20260901133206 72 5 0.0 0.0 0.00 0.00 0.00 97 1021.0
20260901133006 72 5 0.0 0.0 0.00 0.00 0.00 97 1021.0
20260901132808 72 5 0.0 0.0 0.00 0.00 0.00 97 1021.1
20260901132606 71 5 0.0 0.0 0.00 0.00 0.00 97 1021.1
20260901132406 71 5 0.0 0.0 0.00 0.00 0.00 97 1021.1
20260901132206 71 5 0.0 0.0 0.00 0.00 0.00 97 1021.1
20260901132005 71 5 0.0 0.0 0.00 0.00 0.00 97 1021.1
20260901131808 71 5 0.0 0.0 0.00 0.00 0.00 97 1021.1
20260901131606 71 5 0.0 0.0 0.00 0.00 0.00 97 1021.1
20260901131006 71 5 0.0 0.0 0.00 0.00 0.00 97 1021.1
20260901130807 70 5 0.0 0.0 0.00 0.00 0.00 97 1021.0
20260901130606 70 5 0.0 0.0 0.00 0.00 0.00 97 1021.1
20260901130408 70 5 0.0 0.0 0.00 0.00 0.00 97 1021.1
20260901130205 70 5 0.0 0.0 0.00 0.00 0.00 97 1021.1
20260901130008 70 5 0.0 0.0 0.00 0.00 0.00 97 1021.0
20260901125807 70 5 0.0 0.0 0.00 0.00 0.00 97 1021.1
20260901125606 70 5 0.0 0.0 0.00 0.00 0.00 97 1021.1
20260901125408 70 5 0.0 0.0 0.00 0.00 0.00 97 1021.0
20260901125205 70 5 0.0 0.0 0.00 0.00 0.00 97 1021.1
20260901125005 69 5 0.0 0.0 0.00 0.00 0.00 97 1021.1
20260901124805 69 5 0.0 0.0 0.00 0.00 0.00 97 1021.0
20260901124407 69 5 0.0 0.0 0.00 0.00 0.00 96 1021.0
20260901124206 69 5 0.0 0.0 0.00 0.00 0.00 96 1021.0
20260901124008 69 5 0.0 0.0 0.00 0.00 0.00 96 1020.8
20260901123806 69 5 0.0 0.0 0.00 0.00 0.00 96 1020.9
20260901123606 69 5 0.0 0.0 0.00 0.00 0.00 96 1020.9
20260901123406 69 5 0.0 0.0 0.00 0.00 0.00 96 1020.9
20260901123205 69 5 0.0 0.0 0.00 0.00 0.00 96 1020.9
20260901123007 69 5 0.0 0.0 0.00 0.00 0.00 96 1020.9
20260901122805 69 5 0.0 0.0 0.00 0.00 0.00 96 1020.9
20260901122608 68 5 0.0 0.0 0.00 0.00 0.00 96 1020.8
20260901122405 68 5 0.0 0.0 0.00 0.00 0.00 96 1020.8
20260901122207 68 5 0.0 0.0 0.00 0.00 0.00 96 1020.8
20260901122005 68 5 0.0 0.0 0.00 0.00 0.00 96 1020.7
20260901121805 68 5 0.0 0.0 0.00 0.00 0.00 96 1020.7
20260901121607 68 5 0.0 0.0 0.00 0.00 0.00 95 1020.8
20260901121405 68 5 0.0 0.0 0.00 0.00 0.00 95 1020.7
20260901121208 68 5 0.0 0.0 0.00 0.00 0.00 95 1020.7
20260901121006 68 5 0.0 0.0 0.00 0.00 0.00 95 1020.6
20260901120805 68 5 0.0 0.0 0.00 0.00 0.00 95 1020.7
20260901120610 68 5 0.0 0.0 0.00 0.00 0.00 96 1020.5
20260901120405 68 5 0.0 0.0 0.00 0.00 0.00 96 1020.5
20260901120207 68 5 0.0 0.0 0.00 0.00 0.00 96 1020.5
20260901120008 68 5 0.0 0.0 0.00 0.00 0.00 96 1020.4
20260901115806 68 5 0.0 0.0 0.00 0.00 0.00 96 1020.4
20260901115405 68 5 0.0 0.0 0.00 0.00 0.00 96 1020.4
20260901115006 68 5 0.0 0.0 0.00 0.00 0.00 96 1020.3
20260901114806 68 5 0.0 0.0 0.00 0.00 0.00 96 1020.2
20260901114406 68 5 0.0 0.0 0.00 0.00 0.00 96 1020.2
20260901114208 68 5 0.0 0.0 0.00 0.00 0.00 96 1020.2
20260901114010 68 5 0.0 0.0 0.00 0.00 0.00 96 1020.2
20260901113605 68 5 0.0 0.0 0.00 0.00 0.00 96 1020.1
20260901113405 68 5 0.0 0.0 0.00 0.00 0.00 96 1020.1
20260901113208 68 5 0.0 0.0 0.00 0.00 0.00 96 1020.1
20260901112405 68 5 0.0 0.0 0.00 0.00 0.00 95 1020.0
20260901112208 68 5 0.0 0.0 0.00 0.00 0.00 94 1019.9
20260901112006 68 5 0.0 0.0 0.00 0.00 0.00 94 1019.9
20260901111805 68 5 0.0 0.0 0.00 0.00 0.00 94 1019.9
20260901111606 68 5 0.0 0.0 0.00 0.00 0.00 94 1019.9
20260901111407 68 5 0.0 0.0 0.00 0.00 0.00 94 1019.8
20260901111005 68 5 0.0 0.0 0.00 0.00 0.00 94 1019.8
20260901110808 68 5 0.0 0.0 0.00 0.00 0.00 94 1019.8
20260901110405 68 5 0.0 0.0 0.00 0.00 0.00 94 1019.9
20260901110007 68 5 0.0 0.0 0.00 0.00 0.00 94 1019.8
20260901105807 68 5 0.0 0.0 0.00 0.00 0.00 94 1019.7
20260901105605 68 5 0.0 0.0 0.00 0.00 0.00 93 1019.7
20260901105404 68 5 0.0 0.0 0.00 0.00 0.00 93 1019.8
20260901104806 68 5 0.0 0.0 0.00 0.00 0.00 93 1019.9
20260901104605 68 5 0.0 0.0 0.00 0.00 0.00 93 1019.9
20260901104204 68 5 0.0 0.0 0.00 0.00 0.00 94 1019.9
20260901103804 68 5 0.0 0.0 0.00 0.00 0.00 94 1019.8
20260901103604 68 5 0.0 0.0 0.00 0.00 0.00 94 1019.8
20260901103406 68 5 0.0 0.0 0.00 0.00 0.00 94 1019.8
20260901103204 68 5 0.0 0.0 0.00 0.00 0.00 94 1019.8
20260901103007 68 5 0.0 0.0 0.00 0.00 0.00 94 1019.8
20260901102806 68 5 0.0 0.0 0.00 0.00 0.00 94 1019.8
20260901102604 68 5 0.0 0.0 0.00 0.00 0.00 94 1019.8
20260901102404 68 5 0.0 0.0 0.00 0.00 0.00 94 1019.8
20260901102205 68 5 0.0 0.0 0.00 0.00 0.00 94 1019.8
20260901102006 68 5 0.0 0.0 0.00 0.00 0.00 94 1019.8
20260901101805 68 5 0.0 0.0 0.00 0.00 0.00 94 1019.8
20260901101607 68 5 0.0 0.0 0.00 0.00 0.00 94 1019.8
20260901101404 68 5 0.0 0.0 0.00 0.00 0.00 94 1019.9
20260901101005 68 5 0.0 0.0 0.00 0.00 0.00 94 1019.8
20260901100805 68 5 0.0 0.0 0.00 0.00 0.00 94 1019.7
20260901100606 68 5 0.0 0.0 0.00 0.00 0.00 93 1019.8
20260901100008 68 5 0.0 0.0 0.00 0.00 0.00 94 1019.7
20260901095804 68 5 0.0 0.0 0.00 0.00 0.00 94 1019.7
20260901095604 68 5 0.0 0.0 0.00 0.00 0.00 93 1019.8
20260901095404 68 5 0.0 0.0 0.00 0.00 0.00 93 1019.8
20260901095207 68 5 0.0 0.0 0.00 0.00 0.00 93 1019.8
20260901095005 68 5 0.0 0.0 0.00 0.00 0.00 93 1019.8
20260901094604 68 5 0.0 0.0 0.00 0.00 0.00 94 1019.7
20260901094404 68 5 0.0 0.0 0.00 0.00 0.00 93 1019.7
20260901094206 68 5 0.0 0.0 0.00 0.00 0.00 93 1019.8
20260901094005 69 5 0.0 0.0 0.00 0.00 0.00 93 1019.7
20260901093604 68 5 0.0 0.0 0.00 0.00 0.00 93 1019.8
20260901093404 69 5 0.0 0.0 0.00 0.00 0.00 93 1019.7
20260901093206 69 5 0.0 0.0 0.00 0.00 0.00 93 1019.8
20260901093006 69 5 0.0 0.0 0.00 0.00 0.00 93 1019.7
20260901092806 69 5 0.0 0.0 0.00 0.00 0.00 93 1019.7
20260901092604 69 5 0.0 0.0 0.00 0.00 0.00 93 1019.8
20260901092407 69 5 0.0 0.0 0.00 0.00 0.00 93 1019.8
20260901091806 69 5 0.0 0.0 0.00 0.00 0.00 93 1019.8
20260901091604 69 5 0.0 0.0 0.00 0.00 0.00 93 1019.8
20260901091407 69 5 0.0 0.0 0.00 0.00 0.00 93 1019.8
20260901091205 69 5 0.0 0.0 0.00 0.00 0.00 93 1019.8
20260901091005 69 5 0.0 0.0 0.00 0.00 0.00 93 1019.8
20260901090806 69 5 0.0 0.0 0.00 0.00 0.00 93 1019.8
20260901090604 69 5 0.0 0.0 0.00 0.00 0.00 93 1019.8
20260901090406 69 5 0.0 0.0 0.00 0.00 0.00 93 1019.8
20260901090205 69 5 0.0 0.0 0.00 0.00 0.00 93 1019.7
20260901090009 69 5 0.0 0.0 0.00 0.00 0.00 94 1019.7
20260901085805 69 5 0.0 0.0 0.00 0.00 0.00 93 1019.7
20260901085605 69 5 0.0 0.0 0.00 0.00 0.00 94 1019.7
20260901085205 69 5 0.0 0.0 0.00 0.00 0.00 93 1019.8
20260901085005 69 5 0.0 0.0 0.00 0.00 0.00 93 1019.7
20260901084605 69 5 0.0 0.0 0.00 0.00 0.00 93 1019.7
20260901084409 69 5 0.0 0.0 0.00 0.00 0.00 92 1019.7
20260901084204 69 5 0.0 0.0 0.00 0.00 0.00 93 1019.6
20260901084004 69 5 0.0 0.0 0.00 0.00 0.00 92 1019.7
20260901083805 69 5 0.0 0.0 0.00 0.00 0.00 92 1019.6
20260901083605 69 5 0.0 0.0 0.00 0.00 0.00 92 1019.6
20260901083408 69 5 0.0 0.0 0.00 0.00 0.00 92 1019.6
20260901082805 69 5 0.0 0.0 0.00 0.00 0.00 93 1019.6
20260901082407 69 5 0.0 0.0 0.00 0.00 0.00 93 1019.7
20260901082205 69 5 0.0 0.0 0.00 0.00 0.00 93 1019.7
20260901082004 69 5 0.0 0.0 0.00 0.00 0.00 93 1019.7
20260901081804 69 5 0.0 0.0 0.00 0.00 0.00 94 1019.7
20260901081606 69 5 0.0 0.0 0.00 0.00 0.00 94 1019.7
20260901081406 69 5 0.0 0.0 0.00 0.00 0.00 94 1019.8
20260901081205 69 5 0.0 0.0 0.00 0.00 0.00 93 1019.7
20260901081007 69 5 0.0 0.0 0.00 0.00 0.00 92 1019.8
20260901080805 69 5 0.0 0.0 0.00 0.00 0.00 92 1019.6
20260901080406 69 5 0.0 0.0 0.00 0.00 0.00 92 1019.6
20260901080205 69 5 0.0 0.0 0.00 0.00 0.00 92 1019.7
20260901080009 69 5 0.0 0.0 0.00 0.00 0.00 92 1019.7
20260901075805 69 5 0.0 0.0 0.00 0.00 0.00 92 1019.6
20260901075606 69 5 0.0 0.0 0.00 0.00 0.00 92 1019.6
20260901075405 69 5 0.0 0.0 0.00 0.00 0.00 92 1019.7
20260901075204 69 5 0.0 0.0 0.00 0.00 0.00 92 1019.7
20260901075007 69 5 0.0 0.0 0.00 0.00 0.00 92 1019.7
20260901074804 69 5 0.0 0.0 0.00 0.00 0.00 92 1019.7
20260901074405 69 5 0.0 0.0 0.00 0.00 0.00 92 1019.7
20260901074204 69 5 0.0 0.0 0.00 0.00 0.00 91 1019.7
20260901074007 69 5 0.0 0.0 0.00 0.00 0.00 91 1019.7
20260901073804 69 5 0.0 0.0 0.00 0.00 0.00 91 1019.7
20260901073605 69 5 0.0 0.0 0.00 0.00 0.00 92 1019.8
20260901073405 69 5 0.0 0.0 0.00 0.00 0.00 91 1019.8
20260901072805 69 5 0.0 0.0 0.00 0.00 0.00 91 1019.8
20260901072605 69 5 0.0 0.0 0.00 0.00 0.00 91 1019.9
20260901072405 69 5 0.0 0.0 0.00 0.00 0.00 91 1019.8
20260901072007 69 5 0.0 0.0 0.00 0.00 0.00 91 1019.9
20260901071805 69 5 0.0 0.0 0.00 0.00 0.00 91 1019.9
20260901071605 69 5 0.0 0.0 0.00 0.00 0.00 91 1019.9
20260901071405 69 5 0.0 0.0 0.00 0.00 0.00 91 1019.9
20260901071206 69 5 0.0 0.0 0.00 0.00 0.00 91 1019.9
20260901071008 69 5 0.0 0.0 0.00 0.00 0.00 91 1019.9
20260901070805 70 5 0.0 0.0 0.00 0.00 0.00 91 1020.0
20260901070605 69 5 0.0 0.0 0.00 0.00 0.00 91 1019.9
20260901070405 70 5 0.0 0.0 0.00 0.00 0.00 91 1019.9
20260901070335 70 5 0.0 0.0 0.00 0.00 0.00 91 1020.1
20260901070006 70 5 0.0 0.0 0.00 0.00 0.00 91 1020.1
20260901065606 70 5 0.0 0.0 0.00 0.00 0.00 91 1020.0
20260901065405 70 5 0.0 0.0 0.00 0.00 0.00 91 1019.9
20260901065005 70 5 0.0 0.0 0.00 0.00 0.00 91 1020.1
20260901064606 70 5 0.0 0.0 0.00 0.00 0.00 91 1020.1
20260901064405 70 5 0.0 0.0 0.00 0.00 0.00 91 1020.2
20260901064207 70 5 0.0 0.0 0.00 0.00 0.00 91 1020.1
20260901063805 70 5 0.0 0.0 0.00 0.00 0.00 91 1020.1
20260901063606 70 5 0.0 0.0 0.00 0.00 0.00 91 1020.1
20260901063404 70 5 0.0 0.0 0.00 0.00 0.00 91 1020.1
20260901063207 70 5 0.0 0.0 0.00 0.00 0.00 91 1020.1
20260901063005 70 5 0.0 0.0 0.00 0.00 0.00 91 1020.1
20260901062805 70 5 0.0 0.0 0.00 0.00 0.00 91 1020.1
20260901062606 70 5 0.0 0.0 0.00 0.00 0.00 91 1020.1
20260901062406 70 5 0.0 0.0 0.00 0.00 0.00 91 1020.2
20260901062207 70 5 0.0 0.0 0.00 0.00 0.00 91 1020.2
20260901062005 70 5 0.0 0.0 0.00 0.00 0.00 91 1020.2
20260901061805 70 5 0.0 0.0 0.00 0.00 0.00 91 1020.2
20260901061606 70 5 0.0 0.0 0.00 0.00 0.00 91 1020.2
20260901061405 70 5 0.0 0.0 0.00 0.00 0.00 91 1020.1
20260901061207 70 5 0.0 0.0 0.00 0.00 0.00 91 1020.1
20260901061005 70 5 0.0 0.0 0.00 0.00 0.00 91 1020.2
20260901060606 70 5 0.0 0.0 0.00 0.00 0.00 91 1020.2
20260901060405 70 5 0.0 0.0 0.00 0.00 0.00 91 1020.2
20260901060207 71 5 0.0 0.0 0.00 0.00 0.00 91 1020.1
20260901060007 71 5 0.0 0.0 0.00 0.00 0.00 91 1020.1
20260901055805 71 5 0.0 0.0 0.00 0.00 0.00 91 1020.1
20260901055606 71 5 0.0 0.0 0.00 0.00 0.00 91 1020.1
20260901055405 71 5 0.0 0.0 0.00 0.00 0.00 91 1020.1
20260901055207 71 5 0.0 0.0 0.00 0.00 0.00 91 1020.1
20260901055005 71 5 0.0 0.0 0.00 0.00 0.00 91 1020.2
20260901054805 71 5 0.0 0.0 0.00 0.00 0.00 92 1020.3
20260901054606 71 5 0.0 0.0 0.00 0.00 0.00 92 1020.2
20260901054405 71 5 0.0 0.0 0.00 0.00 0.00 92 1020.2
20260901053805 71 5 0.0 0.0 0.00 0.00 0.00 93 1020.2
20260901053606 71 5 0.0 0.0 0.00 0.00 0.00 93 1020.2
20260901053405 71 5 0.0 0.0 0.00 0.00 0.00 93 1020.2
20260901053207 71 5 0.0 0.0 0.00 0.00 0.00 93 1020.3
20260901053006 71 5 0.0 0.0 0.00 0.00 0.00 92 1020.3
20260901052805 71 5 0.0 0.0 0.00 0.00 0.00 91 1020.3
20260901052608 71 5 0.0 0.0 0.00 0.00 0.00 90 1020.4
20260901052404 71 5 0.0 0.0 0.00 0.00 0.00 90 1020.3
20260901052206 71 5 0.0 0.0 0.00 0.00 0.00 90 1020.3
20260901051804 71 5 0.0 0.0 0.00 0.00 0.00 90 1020.4
20260901051606 71 5 0.0 0.0 0.00 0.00 0.00 90 1020.4
20260901051405 71 5 0.0 0.0 0.00 0.00 0.00 90 1020.4
20260901051208 71 5 0.0 0.0 0.00 0.00 0.00 90 1020.4
20260901050805 71 5 0.0 0.0 0.00 0.00 0.00 90 1020.4
20260901050606 71 5 0.0 0.0 0.00 0.00 0.00 91 1020.3
20260901050405 71 5 0.0 0.0 0.00 0.00 0.00 91 1020.3
20260901050207 71 5 0.0 0.0 0.00 0.00 0.00 91 1020.3
20260901050006 71 5 0.0 0.0 0.00 0.00 0.00 92 1020.3
20260901045804 71 5 0.0 0.0 0.00 0.00 0.00 91 1020.2
20260901045607 71 5 0.0 0.0 0.00 0.00 0.00 90 1020.3
20260901045404 71 5 0.0 0.0 0.00 0.00 0.00 90 1020.3
20260901045204 71 5 0.0 0.0 0.00 0.00 0.00 90 1020.3
20260901045005 71 5 0.0 0.0 0.00 0.00 0.00 90 1020.3
20260901044805 71 5 0.0 0.0 0.00 0.00 0.00 90 1020.2
20260901044607 72 5 0.0 0.0 0.00 0.00 0.00 90 1020.2
20260901044405 72 5 0.0 0.0 0.00 0.00 0.00 90 1020.2
20260901044006 72 5 0.0 0.0 0.00 0.00 0.00 90 1020.2
20260901043805 72 5 0.0 0.0 0.00 0.00 0.00 90 1020.2
20260901043607 72 5 0.0 0.0 0.00 0.00 0.00 90 1020.2
20260901043404 72 5 0.0 0.0 0.00 0.00 0.00 90 1020.1
20260901043206 72 5 0.0 0.0 0.00 0.00 0.00 90 1020.2
20260901043004 72 5 0.0 0.0 0.00 0.00 0.00 90 1020.1
20260901042607 72 5 0.0 0.0 0.00 0.00 0.00 90 1020.2
20260901042404 72 5 0.0 0.0 0.00 0.00 0.00 90 1020.1
20260901042204 72 5 0.0 0.0 0.00 0.00 0.00 90 1020.1
20260901042005 72 5 0.0 0.0 0.00 0.00 0.00 89 1020.1
20260901041805 72 5 0.0 0.0 0.00 0.00 0.00 89 1020.1
20260901041607 72 5 0.0 0.0 0.00 0.00 0.00 89 1020.1
20260901041405 72 5 0.0 0.0 0.00 0.00 0.00 90 1020.1
20260901041205 72 5 0.0 0.0 0.00 0.00 0.00 90 1020.2
20260901040806 72 5 0.0 0.0 0.00 0.00 0.00 89 1020.1
20260901040607 72 5 0.0 0.0 0.00 0.00 0.00 90 1020.1
20260901040404 72 5 0.0 0.0 0.00 0.00 0.00 90 1020.1
20260901040206 72 5 0.0 0.0 0.00 0.00 0.00 89 1020.0
20260901040012 72 5 0.0 0.0 0.00 0.00 0.00 90 1019.9
20260901035809 72 5 0.0 0.0 0.00 0.00 0.00 90 1019.9
20260901035607 72 5 0.0 0.0 0.00 0.00 0.00 90 1020.0
20260901035208 72 5 0.0 0.0 0.00 0.00 0.00 91 1019.9
20260901035006 72 5 0.0 0.0 0.00 0.00 0.00 91 1020.0
20260901034809 72 5 0.0 0.0 0.00 0.00 0.00 91 1020.1
20260901034606 72 5 0.0 0.0 0.00 0.00 0.00 90 1020.1
20260901034406 72 5 0.0 0.0 0.00 0.00 0.00 89 1020.0
20260901034207 72 5 0.0 0.0 0.00 0.00 0.00 89 1020.0
20260901034007 72 5 0.0 0.0 0.00 0.00 0.00 89 1020.1
20260901033808 72 5 0.0 0.0 0.00 0.00 0.00 89 1020.1
20260901033409 73 5 0.0 0.0 0.00 0.00 0.00 88 1020.1
20260901033007 73 5 0.0 0.0 0.00 0.00 0.00 89 1020.1
20260901032607 73 5 0.0 0.0 0.00 0.00 0.00 90 1020.1
20260901032409 73 5 0.0 0.0 0.00 0.00 0.00 90 1020.0
20260901032207 73 5 0.0 0.0 0.00 0.00 0.00 88 1019.9
20260901031808 73 5 0.0 0.0 0.00 0.00 0.00 89 1020.0
20260901031607 73 5 0.0 0.0 0.00 0.00 0.00 89 1020.1
20260901031409 73 5 0.0 0.0 0.00 0.00 0.00 89 1020.1
20260901031207 73 5 0.0 0.0 0.00 0.00 0.00 90 1020.0
20260901030808 73 5 0.0 0.0 0.00 0.00 0.00 90 1020.1
20260901030607 73 5 0.0 0.0 0.00 0.00 0.00 90 1020.1
20260901030409 73 5 0.0 0.0 0.00 0.00 0.00 87 1020.1
20260901030009 73 5 0.0 0.0 0.00 0.00 0.00 86 1020.1
20260901025808 73 5 0.0 0.0 0.00 0.00 0.00 86 1019.9
20260901025607 73 5 0.0 0.0 0.00 0.00 0.00 86 1020.0
20260901025411 73 5 0.0 0.0 0.00 0.00 0.00 86 1020.0
20260901025207 73 5 0.0 0.0 0.00 0.00 0.00 86 1020.0
20260901025007 73 5 0.0 0.0 0.00 0.00 0.00 86 1020.0
20260901024808 73 5 0.0 0.0 0.00 0.00 0.00 86 1019.9
20260901024607 74 5 0.0 0.0 0.00 0.00 0.00 86 1020.0
20260901024409 74 5 0.0 0.0 0.00 0.00 0.00 86 1020.0
20260901024007 74 5 0.0 0.0 0.00 0.00 0.00 85 1019.9
20260901023809 74 5 0.0 0.0 0.00 0.00 0.00 85 1019.9
20260901023607 74 5 0.0 0.0 0.00 0.00 0.00 85 1019.9
20260901023207 74 5 0.0 0.0 0.00 0.00 0.00 85 1019.9
20260901023007 74 5 0.0 0.0 0.00 0.00 0.00 85 1020.0
20260901022807 74 5 0.0 0.0 0.00 0.00 0.00 85 1020.0
20260901022607 74 5 0.0 0.0 0.00 0.00 0.00 85 1019.9
20260901022408 74 5 0.0 0.0 0.00 0.00 0.00 85 1020.0
20260901022207 74 5 0.0 0.0 0.00 0.00 0.00 85 1020.1
20260901022007 74 5 0.0 0.0 0.00 0.00 0.00 85 1020.0
20260901021808 74 5 0.0 0.0 0.00 0.00 0.00 85 1020.0
20260901021207 74 5 0.0 0.0 0.00 0.00 0.00 85 1019.9
20260901021007 74 5 0.0 0.0 0.00 0.00 0.00 85 1019.9
20260901020808 75 5 0.0 0.0 0.00 0.00 0.00 85 1019.8
20260901020607 75 5 0.0 0.0 0.00 0.00 0.00 85 1019.9
20260901020409 75 5 0.0 0.0 0.00 0.00 0.00 85 1019.9
20260901020209 75 5 0.0 0.0 0.00 0.00 0.00 85 1019.9
20260901015810 75 5 0.0 0.0 0.00 0.00 0.00 84 1019.8
20260901015607 75 5 0.0 0.0 0.00 0.00 0.00 84 1019.9
20260901015207 75 5 0.0 0.0 0.00 0.00 0.00 84 1019.8
20260901015007 75 5 0.0 0.0 0.00 0.00 0.00 84 1019.8
20260901014809 75 5 0.0 0.0 0.00 0.00 0.00 84 1019.8
20260901014607 75 5 0.0 0.0 0.00 0.00 0.00 83 1019.8
20260901014409 75 5 0.0 0.0 0.00 0.00 0.00 84 1019.8
20260901014207 76 5 0.0 0.0 0.00 0.00 0.00 83 1019.7
20260901014007 76 5 0.0 0.0 0.00 0.00 0.00 84 1019.7
20260901013609 76 5 0.0 0.0 0.00 0.00 0.00 84 1019.7
20260901013207 76 5 0.0 0.0 0.00 0.00 0.00 84 1019.6
20260901012607 76 5 0.0 0.0 0.00 0.00 0.00 85 1019.5
20260901012207 76 5 0.0 0.0 0.00 0.00 0.00 83 1019.5
20260901012007 76 5 0.0 0.0 0.00 0.00 0.00 82 1019.4
20260901011810 76 5 0.0 0.0 0.00 0.00 0.00 81 1019.4
20260901011607 76 5 0.0 0.0 0.00 0.00 0.00 80 1019.3
20260901011007 77 5 0.0 0.0 0.00 0.00 0.00 80 1019.2
20260901010808 77 5 0.0 0.0 0.00 0.00 0.00 80 1019.2
20260901010607 77 5 0.0 0.0 0.00 0.00 0.00 80 1019.1
20260901010409 77 5 0.0 0.0 0.00 0.00 0.00 80 1019.1
20260901010208 77 5 0.0 0.0 0.00 0.00 0.00 80 1019.1
20260901010009 77 5 0.0 0.0 0.00 0.00 0.00 80 1019.2
20260901005809 77 5 0.0 0.0 0.00 0.00 0.00 80 1019.2
20260901005607 77 5 0.0 0.0 0.00 0.00 0.00 80 1019.2
20260901005411 78 5 0.0 0.0 0.00 0.00 0.00 79 1019.2
20260901005207 78 5 0.0 0.0 0.00 0.00 0.00 79 1019.3
20260901005007 78 5 0.0 0.0 0.00 0.00 0.00 79 1019.2
20260901004809 78 5 0.0 0.0 0.00 0.00 0.00 79 1019.2
20260901004609 78 5 0.0 0.0 0.00 0.00 0.00 79 1019.3
20260901004407 78 5 0.0 0.0 0.00 0.00 0.00 79 1019.2
20260901004207 78 5 0.0 0.0 0.00 0.00 0.00 79 1019.2
20260901003810 78 5 0.0 0.0 0.00 0.00 0.00 79 1019.1
20260901003607 79 5 0.0 0.0 0.00 0.00 0.00 78 1019.1
20260901003407 79 5 0.0 0.0 0.00 0.00 0.00 79 1019.0
20260901003207 79 5 0.0 0.0 0.00 0.00 0.00 78 1019.0
20260901003007 79 5 0.0 0.0 0.00 0.00 0.00 78 1019.0
20260901002810 79 5 0.0 0.0 0.00 0.00 0.00 78 1019.0
20260901002607 79 5 0.0 0.0 0.00 0.00 0.00 78 1019.0
20260901002407 79 5 0.0 0.0 0.00 0.00 0.00 78 1018.9
20260901002007 79 5 0.0 0.0 0.00 0.00 0.00 77 1018.9
20260901001607 80 5 0.0 0.0 0.00 0.00 0.00 77 1018.9
20260901001407 80 5 0.0 0.0 0.00 0.00 0.00 77 1018.9
20260901001207 80 5 0.0 0.0 0.00 0.00 0.00 77 1018.9
20260901001007 80 5 0.0 0.0 0.00 0.00 0.00 77 1018.9
20260901000809 80 5 0.0 0.0 0.00 0.00 0.00 76 1019.0
20260901000407 80 5 0.0 0.0 0.00 0.00 0.00 76 1019.0
20260901000207 80 5 0.0 0.0 0.00 0.00 0.00 76 1019.0
20260901000008 80 5 0.0 0.0 0.00 0.00 0.00 76 1019.0
20260831235407 81 5 0.0 0.0 0.00 0.00 0.00 76 1019.1
20260831235007 81 5 0.0 0.0 0.00 0.00 0.00 77 1019.1
20260831234407 81 5 0.0 0.0 0.00 0.00 0.00 78 1019.2
20260831234207 82 5 0.0 0.0 0.00 0.00 0.00 77 1019.1
20260831234007 82 5 0.0 0.0 0.00 0.00 0.00 77 1019.1
20260831233810 82 5 0.0 0.0 0.00 0.00 0.00 77 1019.0
20260831233607 82 5 0.0 0.0 0.00 0.00 0.00 77 1019.0
20260831233407 82 5 0.0 0.0 0.00 0.00 0.00 76 1019.0
20260831233207 82 5 0.0 0.0 0.00 0.00 0.00 76 1019.1
20260831233007 82 5 0.0 0.0 0.00 0.00 0.00 76 1019.0
20260831232607 82 5 0.0 0.0 0.00 0.00 0.00 75 1019.0
20260831232207 82 5 0.0 0.0 0.00 0.00 0.00 75 1019.0
20260831231814 83 5 0.0 0.0 0.00 0.00 0.00 75 1018.9
20260831231607 83 5 0.0 0.0 0.00 0.00 0.00 75 1018.9
20260831231407 83 5 0.0 0.0 0.00 0.00 0.00 75 1019.0
20260831231207 83 5 0.0 0.0 0.00 0.00 0.00 74 1019.1
20260831231007 83 5 0.0 0.0 0.00 0.00 0.00 75 1019.0
20260831230812 83 5 0.0 0.0 0.00 0.00 0.00 74 1019.1
20260831230607 83 5 0.0 0.0 0.00 0.00 0.00 75 1019.1
20260831230407 83 5 0.0 0.0 0.00 0.00 0.00 74 1019.1
20260831230207 83 5 0.0 0.0 0.00 0.00 0.00 75 1019.2
20260831230009 83 5 0.0 0.0 0.00 0.00 0.00 75 1019.4
20260831225607 83 5 0.0 0.0 0.00 0.00 0.00 74 1019.2
20260831225407 83 5 0.0 0.0 0.00 0.00 0.00 74 1019.3
20260831225207 83 5 0.0 0.0 0.00 0.00 0.00 74 1019.3
20260831225007 83 5 0.0 0.0 0.00 0.00 0.00 74 1019.3
20260831224808 83 5 0.0 0.0 0.00 0.00 0.00 73 1019.2
20260831224608 83 5 0.0 0.0 0.00 0.00 0.00 73 1019.2
20260831224409 84 5 0.0 0.0 0.00 0.00 0.00 72 1019.2
20260831224207 84 5 0.0 0.0 0.00 0.00 0.00 72 1019.3
20260831223808 84 5 0.0 0.0 0.00 0.00 0.00 73 1019.2
20260831223607 84 5 0.0 0.0 0.00 0.00 0.00 72 1019.2
20260831223206 84 5 0.0 0.0 0.00 0.00 0.00 71 1019.2
20260831222807 84 5 0.0 0.0 0.00 0.00 0.00 71 1019.2
20260831222607 84 5 0.0 1.0 0.00 0.00 0.00 72 1019.2
20260831222409 84 5 0.0 4.0 0.00 0.00 0.00 70 1019.2
20260831222207 85 92 0.0 4.0 0.00 0.00 0.00 70 1019.2
20260831222007 85 92 0.0 4.0 0.00 0.00 0.00 72 1019.2
20260831221807 85 92 0.0 4.0 0.00 0.00 0.00 71 1019.3
20260831221607 85 313 0.0 2.0 0.00 0.00 0.00 70 1019.3
20260831221410 85 132 0.0 2.0 0.00 0.00 0.00 70 1019.4
20260831221207 85 132 0.0 2.0 0.00 0.00 0.00 69 1019.4
20260831221007 85 100 0.0 0.0 0.00 0.00 0.00 69 1019.4
20260831220807 85 100 0.0 0.0 0.00 0.00 0.00 69 1019.4
20260831220606 85 100 1.0 7.0 0.00 0.00 0.00 67 1019.4
20260831220408 85 100 1.0 7.0 0.00 0.00 0.00 66 1019.4
20260831220207 85 53 1.0 7.0 0.00 0.00 0.00 66 1019.4
20260831220012 85 106 1.0 7.0 0.00 0.00 0.00 66 1019.5
20260831215807 86 100 1.0 7.0 0.00 0.00 0.00 66 1019.4
20260831215607 86 348 0.0 3.0 0.00 0.00 0.00 67 1019.5
20260831215408 86 64 0.0 3.0 0.00 0.00 0.00 67 1019.6
20260831215207 86 97 0.0 3.0 0.00 0.00 0.00 67 1019.6
20260831215009 86 18 0.0 6.0 0.00 0.00 0.00 67 1019.5
20260831214807 86 101 0.0 6.0 0.00 0.00 0.00 66 1019.5
20260831214607 86 78 1.0 6.0 0.00 0.00 0.00 66 1019.5
20260831214408 87 78 1.0 6.0 0.00 0.00 0.00 66 1019.6
20260831214208 87 53 1.0 6.0 0.00 0.00 0.00 64 1019.6
20260831214009 87 328 1.0 6.0 0.00 0.00 0.00 63 1019.7
20260831213806 88 13 1.0 6.0 0.00 0.00 0.00 64 1019.6
20260831213408 88 360 0.0 6.0 0.00 0.00 0.00 60 1019.6
20260831213009 89 331 0.0 0.0 0.00 0.00 0.00 62 1019.5
20260831212807 89 327 0.0 0.0 0.00 0.00 0.00 60 1019.4
20260831212607 89 327 0.0 0.0 0.00 0.00 0.00 59 1019.3
20260831212408 89 327 0.0 0.0 0.00 0.00 0.00 61 1019.3
20260831212009 89 327 0.0 0.0 0.00 0.00 0.00 58 1019.3
20260831211808 90 327 0.0 0.0 0.00 0.00 0.00 57 1019.2
20260831211607 90 327 0.0 0.0 0.00 0.00 0.00 57 1019.2
20260831211408 90 327 0.0 0.0 0.00 0.00 0.00 58 1019.1
20260831211206 90 327 0.0 0.0 0.00 0.00 0.00 56 1019.1
20260831211009 90 12 0.0 0.0 0.00 0.00 0.00 55 1019.2
20260831210807 90 98 0.0 0.0 0.00 0.00 0.00 55 1019.3
20260831210407 90 98 0.0 0.0 0.00 0.00 0.00 54 1019.3
20260831210207 90 98 0.0 0.0 0.00 0.00 0.00 56 1019.3
20260831210010 90 98 0.0 0.0 0.00 0.00 0.00 55 1019.2
20260831205808 90 98 0.0 0.0 0.00 0.00 0.00 54 1019.3
20260831205608 91 98 0.0 0.0 0.00 0.00 0.00 54 1019.3
20260831205420 91 218 0.0 0.0 0.00 0.00 0.00 51 1019.3
20260831205207 91 218 0.0 0.0 0.00 0.00 0.00 52 1019.2
20260831204807 91 101 0.0 0.0 0.00 0.00 0.00 50 1019.2
20260831204606 92 229 0.0 0.0 0.00 0.00 0.00 51 1019.3
20260831204407 92 229 0.0 0.0 0.00 0.00 0.00 49 1019.3
20260831204207 93 229 0.0 0.0 0.00 0.00 0.00 50 1019.2
20260831204010 94 227 0.0 0.0 0.00 0.00 0.00 48 1019.1
20260831203807 94 278 0.0 0.0 0.00 0.00 0.00 48 1019.1
20260831203607 95 278 0.0 0.0 0.00 0.00 0.00 48 1019.1
20260831203407 95 278 0.0 0.0 0.00 0.00 0.00 47 1019.2
20260831203207 95 168 0.0 0.0 0.00 0.00 0.00 48 1019.2
20260831202607 95 205 0.0 0.0 0.00 0.00 0.00 50 1019.2
20260831202407 95 120 0.0 0.0 0.00 0.00 0.00 51 1019.2
20260831202207 95 155 0.0 0.0 0.00 0.00 0.00 49 1019.2
20260831202010 95 208 0.0 0.0 0.00 0.00 0.00 49 1019.2
20260831201807 95 274 0.0 0.0 0.00 0.00 0.00 50 1019.2
20260831201607 95 281 0.0 0.0 0.00 0.00 0.00 48 1019.3
20260831201207 95 284 0.0 0.0 0.00 0.00 0.00 49 1019.3
20260831201010 95 283 0.0 0.0 0.00 0.00 0.00 52 1019.3
20260831200607 94 138 0.0 0.0 0.00 0.00 0.00 51 1019.3
20260831200407 94 253 0.0 0.0 0.00 0.00 0.00 52 1019.4
20260831200207 94 134 0.0 0.0 0.00 0.00 0.00 54 1019.4
20260831200010 93 128 0.0 0.0 0.00 0.00 0.00 52 1019.4
20260831195606 93 264 0.0 0.0 0.00 0.00 0.00 51 1019.5
20260831195206 93 88 0.0 0.0 0.00 0.00 0.00 48 1019.5
20260831194806 93 5 0.0 0.0 0.00 0.00 0.00 51 1019.6
20260831194606 93 113 0.0 0.0 0.00 0.00 0.00 51 1019.7
20260831194407 93 130 0.0 0.0 0.00 0.00 0.00 48 1019.7
20260831194008 94 5 0.0 0.0 0.00 0.00 0.00 49 1019.7
20260831193806 94 285 0.0 0.0 0.00 0.00 0.00 48 1019.7
20260831193405 95 295 0.0 0.0 0.00 0.00 0.00 48 1019.8
20260831193206 95 231 0.0 0.0 0.00 0.00 0.00 47 1019.9
20260831193007 95 229 0.0 0.0 0.00 0.00 0.00 51 1019.8
20260831192805 95 209 0.0 0.0 0.00 0.00 0.00 55 1019.8
20260831192609 95 150 0.0 0.0 0.00 0.00 0.00 55 1019.7
20260831192406 94 128 0.0 0.0 0.00 0.00 0.00 55 1019.7
20260831192205 94 103 0.0 0.0 0.00 0.00 0.00 51 1019.8
20260831192006 94 163 0.0 0.0 0.00 0.00 0.00 55 1019.8
20260831191807 94 49 0.0 0.0 0.00 0.00 0.00 57 1019.8
20260831191406 93 172 0.0 0.0 0.00 0.00 0.00 55 1020.1
20260831191208 93 261 0.0 0.0 0.00 0.00 0.00 53 1020.0
20260831191006 93 209 0.0 0.0 0.00 0.00 0.00 57 1020.1
20260831190607 93 188 0.0 0.0 0.00 0.00 0.00 56 1020.1
20260831190405 93 207 0.0 0.0 0.00 0.00 0.00 58 1020.1
20260831190209 92 198 0.0 0.0 0.00 0.00 0.00 56 1020.1
20260831190008 92 5 0.0 0.0 0.00 0.00 0.00 55 1020.1
20260831185806 92 146 0.0 0.0 0.00 0.00 0.00 58 1020.1
20260831185607 92 146 0.0 0.0 0.00 0.00 0.00 58 1020.1
20260831185406 92 113 0.0 0.0 0.00 0.00 0.00 63 1020.1
20260831185208 92 173 0.0 0.0 0.00 0.00 0.00 60 1020.1
20260831185006 91 17 0.0 0.0 0.00 0.00 0.00 58 1020.1
20260831184806 91 184 0.0 0.0 0.00 0.00 0.00 61 1020.1
20260831184607 91 212 0.0 0.0 0.00 0.00 0.00 63 1020.2